Location: ??? ?????
(30.6482°N, 60.5850°E)
Time: 06:08:40
(UTC+00:00)

Cosmos 1461 - Pass Details

Date: 09 April 2020
Orbit: 507 x 659 km, 65.0° (Epoch: 26 May)

Event Time Altitude Azimuth Distance (km) Brightness Sun altitude
Rises 15:48:08 0° 342° (NNW) 2,920 7.1 -18.7°
Reaches altitude 10° 15:50:33 10° 351° (N) 2,030 6.1 -19.2°
Maximum altitude 15:54:49 36° 59° (ENE) 1,027 3.9 -20.0°
Enters shadow 15:55:06 36° 67° (ENE) 1,034 3.8 -20.1°
